Flag for Kazakhstan Weather past 2 weeks in Aqtobe, Kazakhstan

Now
57 °F

Clear.


Feels Like: 53 °F
Forecast: 46 / 65 °F
Wind: 20 mph from South

Location: Aktjubinsk

Current Time: Apr 19, 2015 at 9:03:27 PM

Latest Report: Apr 19, 2015 at 8:30 PM


Visibility: 10 mi

Pressure: 29.62 "Hg

Humidity: 67%

Dew point: 46 °F

Location of AqtobeLocation

Historic Weather in Aqtobe — Graph

°F

Aqtobe temperature yesterday

Maximum temperature yesterday: 52 °F (at 12:00 PM)
Minimum temperature yesterday: 45 °F (at 2:30 AM)
Average temperature yesterday: 47 °F

Past Weeks' High & Low Weather Summary

 TemperatureHumidityPressure
High66 °F (Apr 19, 1:30 PM)100% (Apr 4, 8:00 PM)30.36 "Hg (Apr 4, 8:00 PM)
Low25 °F (Apr 7, 6:00 AM)17% (Apr 15, 6:30 PM)29.62 "Hg (Apr 19, 2:00 PM)
Average42 °F76%29.98 "Hg
* Reported Apr 4 8:00 PM — Apr 19 8:00 PM, Aqtobe, Weather by CustomWeather, © 2015

Note: Actual official high and low records may vary slightly from our data, if they occured in-between our weather recording intervals... More about our weather records

Advertising

Aqtobe weather history for previous 24 hours

 ConditionsComfort  
Time TempWeatherWind HumidityBarometerVisibility
8:00 PM
Sun, Apr 19
59 °FSunny.22 mph63%29.62 "Hg10 mi
7:30 PM61 °FSunny.22 mph59%29.62 "Hg10 mi
7:00 PM61 °FPartly sunny.17 mph59%29.62 "HgN/A
6:30 PM61 °FPartly sunny.24 mph59%29.62 "HgN/A
6:00 PM63 °FBroken clouds.26 mph56%29.62 "HgN/A
5:30 PM63 °FBroken clouds.26 mph56%29.62 "HgN/A
5:00 PM63 °FBroken clouds.29 mph52%29.62 "HgN/A
4:30 PM64 °FBroken clouds.26 mph49%29.62 "HgN/A
4:00 PM64 °FBroken clouds.24 mph52%29.62 "HgN/A
3:30 PM64 °FBroken clouds.29 mph49%29.62 "HgN/A
3:00 PM63 °FSunny.26 mph49%29.62 "Hg10 mi
2:30 PM64 °FSunny.26 mph49%29.62 "Hg10 mi
2:00 PM64 °FBroken clouds.24 mph49%29.62 "HgN/A
1:30 PM66 °FBroken clouds.22 mph46%29.65 "HgN/A
1:00 PM63 °FBroken clouds.22 mph56%29.65 "HgN/A
12:30 PM59 °FBroken clouds.22 mph63%29.65 "HgN/A
12:00 PM61 °FBroken clouds.22 mph59%29.65 "HgN/A
11:30 AM59 °FPartly sunny.22 mph63%29.68 "HgN/A
11:00 AM59 °FSunny.20 mph68%29.68 "Hg10 mi
10:30 AM57 °FSunny.20 mph72%29.68 "Hg10 mi
10:00 AM54 °FSunny.17 mph82%29.68 "Hg10 mi
9:30 AM52 °FSunny.15 mph82%29.68 "Hg10 mi
9:00 AM50 °FSunny.15 mph88%29.68 "Hg10 mi
8:30 AM50 °FSunny.17 mph88%29.71 "Hg10 mi
8:00 AM48 °FSunny.17 mph87%29.71 "Hg10 mi
7:30 AM48 °FSunny.17 mph87%29.68 "Hg10 mi
7:00 AM48 °FSunny.17 mph87%29.68 "Hg10 mi
6:30 AM48 °FSunny.20 mph87%29.68 "Hg10 mi
6:00 AM48 °FClear.20 mph87%29.68 "Hg10 mi
5:30 AM48 °FClear.17 mph87%29.68 "Hg10 mi
5:00 AM48 °FClear.13 mph87%29.71 "Hg10 mi
4:30 AM45 °FPassing clouds.3 mph100%29.71 "HgN/A
4:00 AM43 °FClear.1 mph100%29.71 "Hg5 mi
3:30 AM43 °FClear.3 mph100%29.71 "Hg5 mi
3:00 AM41 °FClear.6 mph100%29.71 "Hg4 mi
2:30 AM43 °FClear.3 mph93%29.74 "Hg10 mi
2:00 AM43 °FMostly cloudy.6 mph100%29.74 "HgN/A
1:30 AM45 °FMostly cloudy.6 mph93%29.77 "HgN/A
1:00 AM45 °FPassing clouds.6 mph93%29.77 "HgN/A
12:30 AM45 °FPassing clouds.8 mph93%29.77 "HgN/A
12:00 AM45 °FPassing clouds.6 mph100%29.80 "HgN/A
11:30 PM
Sat, Apr 18
45 °FSprinkles. Partly cloudy.6 mph100%29.80 "Hg3 mi
11:00 PM45 °FSprinkles. Mostly cloudy.6 mph100%29.80 "Hg5 mi
10:30 PM45 °FSprinkles. Mostly cloudy.8 mph100%29.77 "Hg3 mi
10:00 PM45 °FSprinkles. Mostly cloudy.6 mph100%29.80 "Hg3 mi
9:30 PM45 °FSprinkles. Mostly cloudy.3 mph100%29.80 "Hg5 mi
9:00 PM45 °FSprinkles. Mostly cloudy.3 mph100%29.80 "HgN/A
Weather by CustomWeather, © 2015

See weather overviewHow to use our weather pages